Regional Weather Roundup
Issued by NWS

Home | Current Version | Previous Version | Graphics & Text | Print | Product List | Glossary On
Versions: 1 2 3 4 5 6 7 8 9 10 11 12 13 14 15 16 17 18 19 20 21 22 23 24 25 26 27 28 29 30 31 32 33 34 35 36 37 38 39 40 41 42 43 44 45 46 47 48 49 50
000
ASUS43 KLMK 230610
RWRKY
KENTUCKY REGIONAL WEATHER ROUNDUP
NATIONAL WEATHER SERVICE LOUISVILLE KY
200 AM EDT SAT AUG 23 2014

NOTE "FAIR" INDICATES FEW OR NO CLOUDS BELOW 12,000 FEET
WITH NO SIGNIFICANT WEATHER AND/OR OBSTRUCTIONS TO VISIBILITY.

KYZ001>023-026-027-061>063-070>075-230700-
WESTERN AND SOUTH CENTRAL KENTUCKY

CITY           SKY/WX    TMP DP  RH WIND       PRES   REMARKS
PADUCAH        FAIR      82  75  79 VRB5      29.96F
HENDERSON      MOCLDY    79  73  83 E5        29.98S
OWENSBORO      CLOUDY    75  75 100 E10       30.03R FOG
HOPKINSVILLE   FAIR      79  78  95 CALM      30.01R
BOWLING GREEN  FAIR      78  74  87 SE5       30.01R
GLASGOW        FAIR      76  75  96 CALM      30.01S
$$

KYZ024-025-028>034-038-045-046-053-230700-
NORTH CENTRAL KENTUCKY

CITY           SKY/WX    TMP DP  RH WIND       PRES   REMARKS
LOUISVILLE/SDF MOCLDY    75  72  90 CALM      29.99F
LOUISVILLE/LOU FAIR      74  72  93 CALM      30.00F
FORT KNOX      MOCLDY    73  73 100 SW1       30.00S FOG
$$

KYZ035>037-039>044-047>052-055>060-089>105-230700-
NORTHEAST KENTUCKY

CITY           SKY/WX    TMP DP  RH WIND       PRES   REMARKS
LEXINGTON      FAIR      74  70  87 CALM      30.03R
COVINGTON      NOT AVBL
FRANKFORT      FAIR      70  69  97 CALM      30.01S
$$

KYZ054-064>069-076>088-106>120-230700-
SOUTHEAST KENTUCKY

CITY           SKY/WX    TMP DP  RH WIND       PRES   REMARKS
JACKSON        MOCLDY    71  69  93 CALM      30.04F FOG
LONDON         FAIR      79  72  79 CALM      30.03F
SOMERSET       FAIR      73  73 100 CALM      30.04R
MIDDLESBORO    FAIR      72  71  96 CALM      30.03F
MONTICELLO     FAIR      72  72 100 CALM      30.04F FOG
$$




USA.gov is the U.S. government's official web portal to all federal, state and local government web resources and services.